This is the latest recevied weather packets stored in our database for station/object WAYLND-WX. If no packets are shown the sender has not sent any weather packets the latest 10 day(s).
| Time | Temp. | Humidity | Pressure | Rain* | Wind** | Luminosity | Snow |
|---|---|---|---|---|---|---|---|
| 1777213854 | 9.44° C | 87% | 991.9 hPa | 0 mm | - | - | - |
| 1777212943 | 9.44° C | 87% | 991.9 hPa | 0 mm | - | - | - |
| 1777212074 | 9.44° C | 87% | 991.9 hPa | 0 mm | - | - | - |
| 1777211142 | 8.89° C | 87% | 991 hPa | 0 mm | - | - | - |
| 1777210255 | 8.89° C | 87% | 991 hPa | 0 mm | - | - | - |
| 1777209342 | 8.89° C | 87% | 990.9 hPa | 0 mm | - | - | - |
| 1777208464 | 8.33° C | 87% | 990.9 hPa | 0 mm | - | - | - |
| 1777207541 | 8.33° C | 90% | 990.4 hPa | 0 mm | - | - | - |
| 1777206657 | 8.33° C | 89% | 991.6 hPa | 0 mm | - | - | - |
| 1777205741 | 7.78° C | 89% | 991.5 hPa | 0 mm | - | - | - |
| 1777204868 | 7.78° C | 89% | 991.5 hPa | 0 mm | - | - | - |
| 1777203941 | 7.22° C | 88% | 991.3 hPa | 0 mm | - | - | - |
| 1777203057 | 7.22° C | 90% | 991.7 hPa | 0 mm | - | - | - |
| 1777202141 | 7.22° C | 90% | 991.7 hPa | 0 mm | - | - | - |
| 1777201265 | 7.22° C | 90% | 991.7 hPa | 0 mm | - | - | - |
| 1777200341 | 7.22° C | 89% | 990.9 hPa | 0 mm | - | - | - |
| 1777199457 | 7.22° C | 95% | 990.9 hPa | 0 mm | - | - | - |
| 1777198542 | 7.22° C | 95% | 990.9 hPa | 0 mm | - | - | - |
| 1777197669 | 7.22° C | 95% | 990.9 hPa | 0 mm | - | - | - |
| 1777196741 | 7.22° C | 88% | 990.2 hPa | 0 mm | - | - | - |
| 1777195859 | 7.22° C | 93% | 990.4 hPa | 0 mm | - | - | - |
| 1777194942 | 7.22° C | 93% | 990.4 hPa | 0 mm | - | - | - |
| 1777194063 | 7.22° C | 93% | 990.4 hPa | 0 mm | - | - | - |
| 1777193141 | 6.67° C | 88% | 989.2 hPa | 0 mm | - | - | - |
| 1777192258 | 6.67° C | 90% | 989.3 hPa | 0 mm | - | - | - |
* Rain latest hour (hover to see other rain measurements)
** Current wind speed in m/s (hover to see current wind gust speed)